Find Starlink 4170

NORAD ID: 53140 Int'l Des: 2022-083 Owner: SPXS Country: US Constellation: starlink operational
LEOCIRCULAR

实时位置

正在加载3D地球...

关于 Starlink 4170

正在加载描述...

即将过境

Passes for default location (London). Set your location on the main map for personalized predictions.

高度历史

Loading altitude history...

两行轨道根数

1 53140U 22083J 26122.45056588 .00000168 00000-0 28617-4 0 9995
2 53140 53.2166 292.7789 0001280 91.4202 268.6937 15.08836952209336
Epoch: May 2, 2026 • Age: 11 hours

当前状态

高度 558.2 km
速度 7.58 km/s
星下点 -50.82°S, 6.34°W
发射日期 Jul 17, 2022
运行时间 3.7 years
类型 internet

技术详情

分类 Payload
质量 297.00 kg
干质量 275.00 kg
总质量 297.00 kg
长度 0.20 m
直径 2.80 m
跨度 9.00 m
形状 Box + pan
制造商 SPXS
平台类型 Starlink
阶段状态 In Orbit
所有者/国家 SPXS/US

Most Searched